KD0QEO Weather Reports


time (UTC)temp
F
wind
direction
speed
knots
gust
knots
rain 1hr
in
rain 24hr
in
rain mn
in
humidity
%
barometer
mb
20260508211548 77 360 12.2 18.2 0.00 0.00 0.00 20 1007.9
20260508210105 76 360 9.6 22.6 0.00 0.00 0.00 22 1008.0
20260508204554 77 360 13.0 22.6 0.00 0.00 0.00 23 1008.2
20260508203054 76 360 13.9 24.3 0.00 0.00 0.00 21 1008.3
20260508201550 77 360 14.8 20.0 0.00 0.00 0.00 22 1008.3
20260508200050 76 360 9.6 16.5 0.00 0.00 0.00 28 1008.5
20260508194551 76 360 11.3 20.0 0.00 0.00 0.00 25 1008.5
20260508193052 76 360 10.4 16.5 0.00 0.00 0.00 25 1008.6
20260508191548 76 360 12.2 19.1 0.00 0.00 0.00 26 1008.9
20260508184608 74 360 9.6 17.4 0.00 0.00 0.00 26 1009.1
20260508183051 74 360 5.2 23.5 0.00 0.00 0.00 26 1009.4
20260508181601 74 360 9.6 14.8 0.00 0.00 0.00 27 1009.6
20260508180049 74 360 12.2 17.4 0.00 0.00 0.00 27 1009.8
20260508174547 73 360 0.9 13.0 0.00 0.00 0.00 30 1009.8
20260508173057 73 360 11.3 16.5 0.00 0.00 0.00 28 1010.1
20260508171550 73 360 7.0 15.6 0.00 0.00 0.00 28 1010.1
20260508170051 71 360 4.3 16.5 0.00 0.00 0.00 30 1010.2
20260508164601 71 360 7.8 13.0 0.00 0.00 0.00 29 1010.2
20260508163046 71 360 3.5 13.9 0.00 0.00 0.00 30 1010.3
20260508161551 70 360 3.5 7.0 0.00 0.00 0.00 32 1010.6
20260508160051 68 360 2.6 7.0 0.00 0.00 0.00 29 1010.4
20260508154549 68 360 1.7 5.2 0.00 0.00 0.00 29 1010.4
20260508153050 68 0 0.9 3.5 0.00 0.00 0.00 30 1010.3
20260508151603 65 360 2.6 5.2 0.00 0.00 0.00 33 1010.3
20260508150059 65 360 3.5 7.8 0.00 0.00 0.00 33 1010.3
20260508144619 65 360 5.2 8.7 0.00 0.00 0.00 33 1010.2
20260508143053 64 360 2.6 7.0 0.00 0.00 0.00 39 1010.3
20260508141602 63 360 4.3 8.7 0.00 0.00 0.00 37 1010.4
20260508140054 61 360 3.5 7.8 0.00 0.00 0.00 40 1010.3
20260508134553 60 360 5.2 7.8 0.00 0.00 0.00 42 1010.2
20260508133114 59 360 3.5 7.8 0.00 0.00 0.00 45 1009.9
20260508131551 55 360 3.5 7.0 0.00 0.00 0.00 48 1009.9
20260508130052 52 360 4.3 7.8 0.00 0.00 0.00 51 1009.7
20260508124550 51 360 3.5 5.2 0.00 0.00 0.00 53 1009.7
20260508123100 49 360 1.7 4.3 0.00 0.00 0.00 57 1009.9
20260508121548 48 360 0.9 3.5 0.00 0.00 0.00 57 1009.8
20260508120053 48 360 2.6 7.0 0.00 0.00 0.00 58 1009.8
20260508114551 47 360 2.6 5.2 0.00 0.00 0.00 61 1009.7
20260508113105 47 360 1.7 3.5 0.00 0.00 0.00 57 1009.5
20260508111551 48 360 2.6 5.2 0.00 0.00 0.00 56 1009.5
20260508110055 47 360 1.7 4.3 0.00 0.00 0.00 58 1009.0
20260508104550 49 360 1.7 7.0 0.00 0.00 0.00 55 1009.0
20260508103059 51 360 2.6 5.2 0.00 0.00 0.00 49 1008.7
20260508101551 51 360 2.6 5.2 0.00 0.00 0.00 49 1008.9
20260508100046 51 360 4.3 7.0 0.00 0.00 0.00 51 1008.7
20260508094546 52 360 3.5 7.0 0.00 0.00 0.00 49 1008.7
20260508093046 52 360 3.5 7.0 0.00 0.00 0.00 54 1008.9
20260508091558 51 360 3.5 4.3 0.00 0.00 0.00 53 1008.8
20260508090107 51 360 2.6 7.0 0.00 0.00 0.00 55 1008.9
20260508084547 53 360 3.5 7.0 0.00 0.00 0.00 52 1008.9
20260508083050 55 360 6.1 10.4 0.00 0.00 0.00 44 1008.9
20260508081558 55 360 7.0 10.4 0.00 0.00 0.00 47 1008.9
20260508080052 55 360 7.8 10.4 0.00 0.00 0.00 48 1009.1
20260508074546 54 360 2.6 7.8 0.00 0.00 0.00 56 1009.2
20260508073101 55 360 6.1 11.3 0.00 0.00 0.00 49 1009.6
20260508071600 58 360 7.0 13.9 0.00 0.00 0.00 35 1010.1
20260508070056 59 360 7.8 12.2 0.00 0.00 0.00 32 1009.8
20260508064549 56 360 4.3 9.6 0.00 0.00 0.00 39 1009.9
20260508063049 56 360 2.6 7.0 0.00 0.00 0.00 40 1010.2
20260508061553 56 360 4.3 7.8 0.00 0.00 0.00 40 1009.9
20260508060053 56 360 3.5 7.8 0.00 0.00 0.00 42 1009.8
20260508054548 56 360 4.3 7.8 0.00 0.00 0.00 41 1009.8
20260508053114 57 360 5.2 10.4 0.00 0.00 0.00 39 1009.7
20260508051549 57 360 5.2 7.8 0.00 0.00 0.00 38 1009.7
20260508050049 57 360 4.3 7.8 0.00 0.00 0.00 39 1009.7
20260508044554 57 360 3.5 7.8 0.00 0.00 0.00 40 1009.7
20260508043056 57 360 5.2 9.6 0.00 0.00 0.00 38 1009.6
20260508041613 58 360 6.1 8.7 0.00 0.00 0.00 37 1009.6
20260508040109 57 360 4.3 7.8 0.00 0.00 0.00 38 1009.6
20260508034553 58 360 3.5 10.4 0.00 0.00 0.00 36 1009.7
20260508033050 58 360 4.3 7.8 0.00 0.00 0.00 35 1009.6
20260508031559 58 360 3.5 5.2 0.00 0.00 0.00 36 1009.5
20260508030050 59 360 3.5 8.7 0.00 0.00 0.00 35 1009.4
20260508024604 60 360 4.3 8.7 0.00 0.00 0.00 32 1009.3
20260508023053 61 360 4.3 7.8 0.00 0.00 0.00 32 1009.1
20260508021556 61 360 3.5 7.0 0.00 0.00 0.00 32 1009.0
20260508020055 63 360 2.6 5.2 0.00 0.00 0.00 30 1008.9
20260508014550 64 360 2.6 7.0 0.00 0.00 0.00 30 1008.9
20260508013053 66 360 2.6 5.2 0.00 0.00 0.00 28 1008.6
20260508011558 67 360 3.5 5.2 0.00 0.00 0.00 26 1008.5
20260508010052 67 360 2.6 5.2 0.00 0.00 0.00 27 1008.5
20260508004555 69 360 3.5 5.2 0.00 0.00 0.00 25 1008.3
20260508003053 71 360 2.6 5.2 0.00 0.00 0.00 24 1008.3
20260508001551 72 360 4.3 8.7 0.00 0.00 0.00 23 1008.4
20260508000048 73 360 1.7 7.8 0.00 0.00 0.00 22 1008.4
20260507234550 72 360 4.3 10.4 0.00 0.00 0.00 20 1008.5
20260507233059 73 302 3.5 7.8 0.00 0.00 0.00 20 1008.5
20260507231555 73 360 5.2 10.4 0.00 0.00 0.00 19 1008.6
20260507230055 74 360 4.3 15.6 0.00 0.00 0.00 19 1008.7
20260507224556 75 360 11.3 13.9 0.00 0.00 0.00 19 1008.6
20260507223102 76 360 11.3 16.5 0.00 0.00 0.00 19 1008.3
20260507221557 76 360 7.8 14.8 0.00 0.00 0.00 18 1008.6
20260507220051 75 360 10.4 15.6 0.00 0.00 0.00 19 1008.7
20260507214606 75 360 7.8 13.0 0.00 0.00 0.00 19 1008.8
20260507213102 75 360 5.2 16.5 0.00 0.00 0.00 20 1009.0